Location: Utrecht
(52.0830°N, 5.1330°E)
Time: 13:37:20
(UTC+02:00)

Daily predictions for brighter satellites

Satellite Brightness Start Highest point End
(mag) Time Altitude Azimuth Time Altitude Azimuth Time Altitude Azimuth
Timation 2 Rocket 3.9 22:06:28 10° NNW 22:12:33 81° ENE 22:18:32 10° SE
Envisat 3.3 22:08:28 10° S 22:13:32 72° WSW 22:18:39 10° NNW
Cosmos 1782 Rocket 4.0 22:12:30 10° SSE 22:16:44 44° E 22:21:00 10° NNE
Cosmos 1624 Rocket 4.4 22:13:01 10° SSW 22:18:18 72° WNW 22:23:40 10° NNE
Cosmos 1782 4.3 22:16:07 10° NNW 22:19:53 38° W 22:23:38 10° SSW
ATLAS 5 CENTAUR R/B 4.4 22:16:27 10° WNW 22:20:54 22° WSW 22:25:33 10° SSW
Cosmos 1892 4.4 22:19:05 10° SW 22:22:41 37° WNW 22:26:21 10° N
Cosmos 614 Rocket 4.1 22:18:34 10° NNW 22:23:41 68° ENE 22:28:44 10° SE
ARGOS 3.3 22:20:05 10° SSE 22:25:21 62° ENE 22:30:40 10° N
Cosmos 1975 Rocket 3.0 22:21:51 10° N 22:26:12 83° E 22:30:32 10° SSE
Nimbus 7 Rocket 4.4 22:21:19 10° NNE 22:27:15 72° ESE 22:33:13 10° S
COSMOS 2487 3.3 22:27:54 10° NNW 22:31:26 49° WSW 22:34:56 10° S
Cosmos 2154 Rocket 4.0 22:25:31 10° S 22:31:43 86° E 22:37:58 10° N
ERS-1 Rocket 4.4 22:27:17 10° SSW 22:31:55 36° W 22:36:35 10° NNW
Cosmos 1140 Rocket 3.7 22:27:59 10° NNW 22:33:08 74° WSW 22:38:16 10° SSE
TIMED 4.5 22:31:12 10° SSW 22:35:34 79° ESE 22:39:58 10° NNE
H-2A R/B 2.7 22:30:57 10° SE 22:36:00 43° ENE 22:40:59 10° N
Cosmos 1939 Rocket 4.5 22:33:15 10° SSW 22:36:47 32° W 22:40:23 10° NNW
Cosmos 1378 Rocket 4.3 22:34:16 10° NNW 22:38:28 51° W 22:42:39 10° S
Cosmos 1536 Rocket 4.2 22:34:39 10° N 22:38:55 42° ENE 22:43:01 11° SE
deb Chang Zheng 4 3.9 22:37:02 10° NNE 22:41:26 72° WNW 22:45:51 10° SSW
Cosmos 1833 Rocket 2.9 22:35:56 10° NNW 22:41:34 68° NE 22:46:55 11° SE
Cosmos 1908 Rocket 3.9 22:37:11 10° SSW 22:41:35 71° WNW 22:46:03 10° N
Cosmos 1452 Rocket 3.5 22:37:04 10° SSW 22:42:21 81° ESE 22:47:40 10° NNE
Cosmos 2084 3.4 22:39:25 10° SSW 22:43:04 44° SE 22:46:46 10° NE
CZ-4B R/B 3.7 22:40:32 10° NNE 22:45:24 49° E 22:50:07 10° S
AVUM R/B 3.9 22:42:28 10° NNW 22:45:54 51° NE 22:48:55 13° SE
Cosmos 2278 Rocket 2.2 22:42:28 10° SSW 22:48:04 65° ESE 22:53:44 10° NE
SPOT 1/Viking Rocket 3.7 22:46:09 10° SSE 22:51:21 78° WSW 22:56:37 10° NNW
Cosmos 1844 Rocket 3.1 22:46:09 10° SW 22:51:48 70° WNW 22:57:27 10° NNE
Cosmos 1844 3.9 22:47:05 10° SSW 22:52:53 86° WNW 22:58:45 10° NNE
USA 245 3.7 22:52:24 10° S 22:55:49 63° WSW 23:00:12 10° NNW
Okean 1 4.3 22:52:54 10° N 22:56:40 34° ENE 22:59:40 14° SE
Meteor 1-14 Rocket 4.3 22:52:29 10° S 22:58:01 58° E 23:03:29 10° NNE
Cosmos 2366 rocket 4.2 22:53:59 10° SSE 23:00:04 54° E 23:06:14 10° NNE
USA 229 DEB 3.9 22:53:41 10° NW 23:00:46 76° SW 23:07:08 14° SE
USA 229 3.9 22:53:47 10° NW 23:00:53 77° SW 23:07:14 14° SE
Cosmos 2082 Rocket 2.3 22:56:40 10° NNW 23:02:24 77° WSW 23:07:28 13° SSE
Cosmos 1242 Rocket 3.6 23:00:19 10° NNW 23:03:49 44° W 23:07:19 10° S
YAOGAN 6 3.9 23:01:36 10° SSW 23:04:51 36° W 23:08:10 10° NNW
Landsat 7 3.8 23:00:33 12° SSE 23:04:53 79° ENE 23:09:41 10° NNW
Cosmos 1408 3.7 23:03:48 10° SSW 23:07:19 45° WNW 23:10:52 10° N
Cosmos 2151 Rocket 3.8 23:03:58 11° S 23:08:16 55° E 23:12:43 10° NNE
Cosmos 1825 3.4 23:06:49 10° SSW 23:10:28 43° WNW 23:14:09 10° N
H-2A R/B 4.3 23:07:31 10° SW 23:10:44 20° W 23:13:55 10° NW
SL-8 R/B 3.8 23:07:54 10° WSW 23:12:36 55° S 23:17:19 10° E
NOSS 3-1 (A) 4.3 23:11:47 10° NW 23:18:57 65° NE 23:26:36 11° ESE
Terra 1.8 23:16:48 16° SSE 23:20:37 80° ENE 23:25:25 10° NNW
Cosmos 2297 3.7 23:17:16 10° SSW 23:22:53 64° ESE 23:28:35 10° NE
IGS 5A 3.4 23:21:13 18° SSE 23:24:16 78° ENE 23:28:27 10° NNW
SL-08 RB Rocket 4.5 23:22:51 10° S 23:27:15 49° W 23:31:48 10° NNW
Cosmos 2218 Rocket 4.1 23:20:53 10° S 23:27:18 90° E 23:33:45 10° N
DMSP B5D2-2 4.3 23:22:43 10° NNE 23:27:49 50° E 23:31:47 16° S
Cosmos 1812 2.7 23:24:14 10° N 23:28:08 82° E 23:30:42 20° SSE
Cosmos 1300 Rocket 4.2 23:26:52 20° SSE 23:29:33 40° E 23:33:44 10° NNE
Gbstr 26 Del rocket 3.3 23:24:30 10° WNW 23:29:39 58° SSW 23:32:34 20° SE
Spot 4 3.9 23:27:00 18° SSE 23:30:35 77° ENE 23:35:28 10° NNW
Okean 1 Rocket 3.8 23:29:27 20° SSE 23:32:00 38° E 23:36:08 10° NNE
Okean 1-7 Rocket 3.8 23:30:02 10° N 23:34:31 61° ENE 23:37:20 22° SSE
Cosmos 1727 Rocket 4.2 23:30:13 10° NNW 23:36:23 73° W 23:41:48 14° S
SAR-Lupe-2 3.5 23:37:14 24° SSE 23:39:15 80° ENE 23:42:51 10° NNW
ATLAS 2AS CENTAUR R/B 3.9 23:31:59 10° NW 23:39:55 50° NNE 23:47:38 10° ESE
Okean 2 Rocket 4.5 23:36:18 10° SW 23:40:25 38° WNW 23:44:34 10° N
Lacrosse 5 3.5 23:41:06 15° ESE 23:41:06 15° ESE 23:43:28 10° E
ISS -3.1 23:39:01 10° SW 23:42:07 43° SSE 23:45:15 10° E
ASTEX 1 3.6 23:38:38 10° NNE 23:43:32 59° E 23:46:45 21° SSE
Cosmos 1331 Rocket 4.3 23:41:37 19° S 23:45:03 46° ESE 23:49:59 10° NE
Spot 2 4.4 23:44:07 10° NNE 23:48:24 48° E 23:50:35 25° SSE
NOSS 3-1 (C) 4.0 23:42:07 10° NW 23:49:26 88° SW 23:55:39 19° SE
Cosmos 1110 Rocket 4.1 23:47:25 16° S 23:51:27 58° ESE 23:56:34 10° NNE
Meteor 1-19 Rocket 4.5 23:46:43 10° N 23:52:35 64° ENE 23:56:20 22° SSE
Meteor 2-19 Rocket 4.4 23:48:00 13° S 23:53:38 90° WSW 23:59:47 10° N
